Location: Moscow
(55.7500°N, 37.5830°E)
Time: 10:11:02
(UTC+03:00)

Explorer 7 - Pass Details

Date: 09 December 2021
Orbit: 483 x 674 km, 50.3° (Epoch: 19 January)

Event Time Altitude Azimuth Distance (km) Brightness Sun altitude
Rises 06:56:33 0° 255° (WSW) 2,820 - -14.0°
Reaches altitude 10° 06:58:59 10° 248° (WSW) 1,884 - -13.7°
Exits shadow 06:59:25 12° 246° (WSW) 1,727 8.9 -13.7°
Maximum altitude 07:02:59 39° 179° (S) 832 7.9 -13.2°
Drops below altitude 10° 07:06:46 10° 110° (ESE) 1,775 10.9 -12.7°
Sets 07:09:00 0° 103° (ESE) 2,635 12.2 -12.4°
